Location: Indian Hills
(32.9760°N, 85.9450°W)
Time: 12:59:43
(UTC+00:00)

ISS - Pass Details

Date: 10 March 2021
Orbit: 418 x 422 km, 51.6° (Epoch: 13 April)

Event Time Altitude Azimuth Distance (km) Brightness Sun altitude
Exits shadow 10:58:37 - 330° (NNW) 1,860 -0.7 -13.7°
Reaches altitude 10° 10:59:38 10° 338° (NNW) 1,495 -1.1 -13.5°
Maximum altitude 11:02:31 26° 37° (NE) 858 -1.7 -12.9°
Drops below altitude 10° 11:05:24 10° 96° (E) 1,490 0.5 -12.3°
Sets 11:07:42 0° 110° (ESE) 2,351 1.4 -11.8°
